#timestamp,LO_Frequency,Hit,StdDev 
1681538415.7,286047002.8,N
1681538435.6,286047002.6,N
1681538455.4,286047000.3,N
1681538475.3,286047001.2,N
1681538495.1,286047000.9,N
1681538496.0,286047000.9,N
1681538515.8,286047000.2,N
1681538535.7,286047002.3,N
1681538555.5,286047002.2,N
1681538575.3,286047002.6,N
1681538595.2,286047001.9,N
1681538615.0,286046999.7,N
1681538615.9,286046999.7,N
1681538635.8,286047002.0,N
1681538655.6,286047002.5,N
1681538675.4,286047002.8,N
1681538695.3,286047000.7,N
1681538715.1,286046999.7,N
1681538735.9,286047000.4,N
1681538755.7,286047000.4,N
1681538775.5,286046998.5,N
1681538795.4,286046998.5,N
1681538815.2,286046998.2,N
1681538835.0,286046998.3,N
1681538835.9,286046998.3,N
1681538855.8,286046999.3,N
1681538875.6,286046999.4,N
1681538895.5,286046999.9,N
1681538915.3,286047000.6,N
1681538935.1,286047000.7,N
1681538955.9,286046998.7,N
1681538975.7,286046998.9,N
1681538995.5,286046998.8,N
1681539015.4,286047000.9,N
1681539035.2,286047001.0,N
1681539055.0,286046998.1,N
1681539055.9,286046998.1,N
1681539075.8,286047000.7,N
1681539095.6,286047000.7,N
1681539115.5,286046998.6,N
1681539135.3,286047001.1,N
1681539155.1,286047001.0,N
1681539175.9,286047001.0,N
1681539195.7,286046998.9,N
1681539215.5,286046998.3,N
1681539235.4,286047000.6,N
1681539255.2,286046999.9,N
1681539275.1,286046998.1,N
1681539276.0,286046998.1,N
1681539295.8,286046998.3,N
1681539315.6,286046999.2,N
1681539335.5,286046999.1,N
1681539355.3,286046996.9,N
1681539375.1,286046995.0,Y
1681539395.9,286046997.9,P
1681539415.7,286046998.4,N
1681539435.6,286046999.5,N
1681539455.4,286046996.9,Y
1681539475.2,286046998.3,P
1681539495.1,286046998.9,P
1681539496.0,286046998.9,P
1681539515.8,286046998.5,Y
1681539535.6,286046999.8,P
1681539555.5,286047002.6,P
1681539575.3,286047002.8,N
1681539595.2,286046999.8,N
1681539615.9,286047000.4,N
1681539635.7,286047000.5,N
1681539655.6,286047002.4,N
1681539675.4,286047002.3,N
1681539695.2,286047002.4,N
1681539715.1,286047000.2,N
1681539716.0,286047000.2,N
1681539735.8,286047000.0,N
1681539755.7,286047000.3,N
1681539775.5,286047000.6,N
1681539795.3,286047000.9,N
1681539815.2,286047000.6,N
1681539835.9,286047000.0,N
1681539855.7,286047002.5,N
1681539875.6,286046999.7,N
1681539895.4,286047001.4,N
1681539915.3,286047004.3,Y
1681539935.1,286047001.4,P
1681539936.0,286047001.4,P
1681539955.8,286047001.6,P
1681539975.7,286047002.6,Y
1681539995.5,286046998.7,P
1681540015.3,286046998.8,N
1681540035.2,286046998.4,N
1681540055.0,286046998.7,N
1681540055.9,286046998.7,N
1681540075.8,286046999.0,N
1681540095.6,286047000.7,N
1681540115.4,286046999.7,N
1681540135.3,286047000.1,N
1681540155.1,286047002.8,N
1681540175.8,286047002.8,N
1681540195.7,286047000.1,N
1681540215.5,286047000.4,N
1681540235.3,286047002.7,N
1681540255.2,286046998.2,N
1681540275.0,286047001.0,N
1681540275.9,286047001.0,N
1681540295.8,286047000.5,N
1681540315.6,286046998.5,N
1681540335.4,286046998.2,N
1681540355.3,286046996.5,N
1681540375.1,286046999.1,N
1681540395.9,286046997.2,N
1681540415.7,286046995.4,N
1681540435.5,286046996.4,N
1681540455.4,286046996.4,N
1681540475.2,286046994.0,Y
1681540495.0,286046997.5,P
1681540495.9,286046997.5,N
1681540515.8,286046995.2,P
1681540535.6,286046997.7,N
1681540555.5,286046995.1,Y
1681540575.3,286046998.6,P
1681540595.1,286046998.6,N
1681540615.9,286046998.7,N
1681540635.7,286046999.3,N
1681540655.5,286046999.3,N
1681540675.4,286046999.5,N
1681540695.2,286046999.0,N
1681540715.1,286046996.9,Y
1681540716.0,286046996.9,P
1681540735.8,286046998.9,N
1681540755.6,286046996.9,P
1681540775.5,286046998.9,N
1681540795.3,286046996.9,Y
1681540815.1,286047000.6,P
1681540835.9,286046998.2,N
1681540855.7,286047000.6,N
1681540875.6,286047000.4,N
1681540895.4,286046999.8,N
1681540915.2,286047002.5,N
1681540935.1,286047001.7,N
1681540936.0,286047001.7,N
1681540955.8,286047001.4,N
1681540975.6,286047004.1,N
1681540995.5,286047001.5,N
1681541015.3,286047001.4,N
1681541035.2,286047000.3,N
1681541055.9,286046998.8,N
1681541075.7,286047001.2,N
1681541095.6,286047000.7,N
1681541115.4,286047001.2,N
1681541135.2,286047001.0,N
1681541155.1,286046998.1,N
1681541156.0,286046998.1,N
1681541175.8,286047001.0,N
1681541195.7,286047000.5,N
1681541215.5,286047002.2,N
1681541235.3,286047002.2,N
1681541255.2,286047002.1,N
1681541275.0,286047003.1,N
1681541275.9,286047003.1,N
1681541295.7,286047001.9,N
1681541315.6,286047002.6,N
1681541335.4,286047002.3,N
1681541355.3,286047001.7,N
1681541375.1,286047005.2,Y
1681541376.0,286047005.2,P
1681541395.8,286047003.9,N
1681541415.7,286047001.9,N
1681541435.5,286047001.3,N
1681541455.3,286047001.7,N
1681541475.2,286047001.8,N
1681541495.0,286047004.3,Y
1681541495.9,286047004.3,P
1681541515.8,286047000.4,N
1681541535.6,286047002.3,N
1681541555.4,286046999.7,N
1681541575.3,286046999.7,N
1681541595.1,286047000.3,N
1681541615.9,286047000.4,N
1681541635.7,286046998.2,N
1681541655.5,286046999.4,N
1681541675.4,286046998.9,N
1681541695.2,286046997.1,N
1681541715.0,286046998.7,N
1681541715.9,286046998.7,N
1681541735.8,286046996.8,N
1681541755.6,286046995.6,N
1681541775.5,286046996.1,N
1681541795.3,286046996.1,N
1681541815.1,286046995.6,N
1681541835.9,286046997.7,N
1681541855.7,286046996.5,N
1681541875.5,286046997.7,N
1681541895.4,286046997.4,N
1681541915.2,286047000.6,N
1681541935.1,286047000.7,N
1681541936.0,286047000.7,N
1681541955.8,286046998.8,N
1681541975.6,286047000.0,N
1681541995.5,286046998.2,N
